Brno, Czech Republic

8:58 PM CEST on October 19, 2017 (GMT +0200)
Turany

Weather History for LKTB - September, 2013

Change the Weather History Date:

Thursday, September 19, 2013

  Actual Average Record
Temperature  
Mean Temperature 53 °F -  
Max Temperature 60 °F 61 °F - ()
Min Temperature 46 °F 44 °F - ()
Degree Days  
Heating Degree Days 12    
Growing Degree Days 3 (Base 50)    
Moisture  
Dew Point 45 °F    
Average Humidity 77    
Maximum Humidity 100    
Minimum Humidity 44    
Precipitation  
Precipitation 0.01 in 0.04 in - ()
Sea Level Pressure  
Sea Level Pressure 29.77 in    
Wind  
Wind Speed 7 mph ()    
Max Wind Speed 18 mph    
Max Gust Speed -    
Visibility 6.7 miles    
Events Rain    
T = Trace of Precipitation, MM = Missing Value Source: Averaged Metar Reports

Daily Weather History Graph

Daily Weather History Graph

Search for Another Location

Airport or City:

Trip Planner

Search our weather history database for the weather conditions in past years. The results will help you decide how hot, cold, wet, or windy it might be!

Date:

Astronomy

Sep. 19, 2013 Rise Set
Actual Time 6:35 AM CEST 6:57 PM CEST
Civil Twilight 6:03 AM CEST 7:29 PM CEST
Nautical Twilight 5:25 AM CEST 8:06 PM CEST
Astronomical Twilight 4:46 AM CEST 8:45 PM CEST
Moon 6:39 PM CEST 6:27 AM CEST
Length of Visible Light 13h 25m
Length of Day
12h 22m
Full, 100% of the Moon is Illuminated
Sep 19
Full
Sep 19
Full
Sep 27
Last Quarter
Oct 5
New
Oct 12
First Quarter

Hourly Weather History & Observations

Time (CEST) Temp. Windchill Dew Point Humidity Pressure Visibility Wind Dir Wind Speed Gust Speed Precip Events Conditions
12:00 AM 51.8 °F - 51.8 °F 100% 29.53 in 6.2 mi WNW 4.6 mph - N/A   Partly Cloudy
12:30 AM 51.8 °F - 51.8 °F 100% 29.56 in 6.2 mi WSW 5.8 mph - N/A   Partly Cloudy
1:00 AM 53.6 °F - 50.0 °F 88% 29.59 in 6.2 mi West 6.9 mph - N/A   Partly Cloudy
1:30 AM 51.8 °F - 50.0 °F 94% 29.59 in - WNW 6.9 mph - N/A   Clear
2:00 AM 51 °F - 49 °F 92% 29.60 in 12 mi NW 6.7 mph - -   Mostly Cloudy
2:00 AM 51.8 °F - 50.0 °F 94% 29.59 in 6.2 mi WNW 6.9 mph - N/A   Mostly Cloudy
2:07 AM 51.8 °F - 48.2 °F 88% 29.59 in 6.2 mi WNW 5.8 mph - N/A   Mostly Cloudy
2:30 AM 50.0 °F - 48.2 °F 94% 29.59 in 6.2 mi West 5.8 mph - N/A   Scattered Clouds
2:38 AM 50.0 °F - 48.2 °F 94% 29.59 in 6.2 mi WNW 5.8 mph - N/A Rain Light Rain Showers
3:00 AM 50.0 °F - 48.2 °F 94% 29.59 in 6.2 mi NW 5.8 mph - N/A   Partly Cloudy
3:30 AM 50.0 °F - 48.2 °F 94% 29.62 in 6.2 mi NW 4.6 mph - N/A   Partly Cloudy
4:00 AM 50.0 °F - 46.4 °F 87% 29.62 in 6.2 mi NW 6.9 mph - N/A Rain Light Rain
4:30 AM 50.0 °F - 46.4 °F 87% 29.65 in 6.2 mi NW 5.8 mph - N/A Rain Light Rain
5:00 AM 48.2 °F - 44.6 °F 87% 29.65 in 6.2 mi NW 9.2 mph - N/A   Partly Cloudy
5:30 AM 48.2 °F - 44.6 °F 87% 29.68 in - WNW 5.8 mph - N/A   Clear
6:00 AM 48.2 °F - 44.6 °F 87% 29.68 in - West 6.9 mph - N/A   Clear
6:30 AM 46.4 °F 42.4 °F 44.6 °F 93% 29.71 in 6.2 mi West 8.1 mph - N/A   Mostly Cloudy
7:00 AM 48.2 °F - 42.8 °F 82% 29.71 in 6.2 mi West 8.1 mph - N/A   Mostly Cloudy
7:30 AM 48.2 °F - 42.8 °F 82% 29.74 in 6.2 mi NNW 3.5 mph - N/A   Scattered Clouds
8:00 AM 48 °F - 45 °F 84% 29.77 in 19 mi NW 2.2 mph - -   Partly Cloudy
8:00 AM 48.2 °F - 44.6 °F 87% 29.74 in 6.2 mi Variable 1.2 mph - N/A   Mostly Cloudy
8:30 AM 50.0 °F - 44.6 °F 82% 29.77 in 6.2 mi SSE 2.3 mph - N/A   Partly Cloudy
9:00 AM 51.8 °F - 44.6 °F 76% 29.77 in 6.2 mi WSW 3.5 mph - N/A   Partly Cloudy
9:30 AM 51.8 °F - 44.6 °F 76% 29.77 in 6.2 mi WNW 9.2 mph - N/A   Partly Cloudy
10:00 AM 53.6 °F - 44.6 °F 72% 29.77 in 6.2 mi WNW 12.7 mph - N/A   Partly Cloudy
10:30 AM 53.6 °F - 42.8 °F 67% 29.80 in 6.2 mi WNW 15.0 mph - N/A   Partly Cloudy
11:00 AM 55.4 °F - 42.8 °F 63% 29.80 in 6.2 mi WNW 16.1 mph - N/A   Partly Cloudy
11:30 AM 57.2 °F - 42.8 °F 59% 29.80 in 6.2 mi NW 16.1 mph - N/A   Scattered Clouds
12:00 PM 57.2 °F - 41.0 °F 55% 29.83 in 6.2 mi WNW 18.4 mph - N/A   Scattered Clouds
12:30 PM 59.0 °F - 41.0 °F 51% 29.83 in 6.2 mi WNW 17.3 mph - N/A   Scattered Clouds
1:00 PM 59.0 °F - 41.0 °F 51% 29.83 in 6.2 mi WNW 18.4 mph - N/A   Mostly Cloudy
1:30 PM 57.2 °F - 42.8 °F 59% 29.83 in 6.2 mi WNW 15.0 mph - N/A   Mostly Cloudy
2:00 PM 58 °F - 42 °F 44% 29.83 in 22 mi WNW 13.4 mph - -   Partly Cloudy
2:00 PM 57.2 °F - 42.8 °F 59% 29.83 in 6.2 mi NW 13.8 mph - N/A   Scattered Clouds
2:30 PM 57.2 °F - 44.6 °F 63% 29.83 in 6.2 mi NW 13.8 mph - N/A   Mostly Cloudy
2:49 PM 57.2 °F - 44.6 °F 63% 29.83 in 6.2 mi NW 12.7 mph - N/A Rain Light Rain Showers
3:00 PM 55.4 °F - 46.4 °F 72% 29.83 in 6.2 mi NW 11.5 mph - N/A Rain Light Rain Showers
3:30 PM 57.2 °F - 46.4 °F 67% 29.83 in 6.2 mi WNW 11.5 mph - N/A   Mostly Cloudy
4:00 PM 55.4 °F - 44.6 °F 67% 29.83 in 6.2 mi West 11.5 mph - N/A   Mostly Cloudy
4:30 PM 57.2 °F - 42.8 °F 59% 29.86 in 6.2 mi NNW 13.8 mph - N/A   Scattered Clouds
5:00 PM 55.4 °F - 44.6 °F 67% 29.86 in 6.2 mi NNW 6.9 mph - N/A   Scattered Clouds
5:30 PM 57.2 °F - 41.0 °F 55% 29.86 in 6.2 mi WNW 12.7 mph - N/A Rain Light Rain Showers
6:00 PM 53.6 °F - 44.6 °F 72% 29.86 in 6.2 mi North 10.4 mph - N/A   Partly Cloudy
6:30 PM 53.6 °F - 44.6 °F 72% 29.89 in - North 6.9 mph - N/A   Clear
7:00 PM 51.8 °F - 44.6 °F 76% 29.89 in - WNW 6.9 mph - N/A   Clear
7:30 PM 51.8 °F - 44.6 °F 76% 29.89 in - Variable 2.3 mph - N/A   Clear
8:00 PM 51 °F - 45 °F 72% 29.92 in 22 mi SSW 4.5 mph - -   Partly Cloudy
8:00 PM 51.8 °F - 44.6 °F 76% 29.89 in 6.2 mi South 3.5 mph - N/A   Partly Cloudy
8:30 PM 50.0 °F - 42.8 °F 76% 29.92 in - Variable 2.3 mph - N/A   Clear
9:00 PM 48.2 °F - 44.6 °F 87% 29.92 in - SE 3.5 mph - N/A   Clear
9:30 PM 48.2 °F - 44.6 °F 87% 29.95 in - Variable 2.3 mph - N/A   Clear
10:00 PM 46.4 °F - 41.0 °F 81% 29.95 in - Variable 2.3 mph - N/A   Clear
10:30 PM 46.4 °F 45.2 °F 42.8 °F 87% 29.95 in - SW 3.5 mph - N/A   Clear
11:00 PM 48.2 °F - 42.8 °F 82% 29.95 in - Variable 2.3 mph - N/A   Clear
11:30 PM 48.2 °F - 42.8 °F 82% 29.95 in - North 4.6 mph - N/A   Clear